Find Starlink 35703

NORAD ID: 66970 Int'l Des: 2025-288 Owner: SPXS Country: US Constellation: starlink operational
LEOCIRCULAR

現在のビュー

3D地球を読み込み中...

Starlink 35703について

説明を読み込み中...

次回通過

Passes for default location (London). Set your location on the main map for personalized predictions.

高度履歴

Loading altitude history...

軌道要素

1 66970U 25288M 26146.45495052 .00017328 00000-0 63753-3 0 9994
2 66970 42.9989 304.0117 0000970 259.2265 100.8477 15.27590842 27182
Epoch: May 26, 2026 • Age: 8 hours

現在のステータス

高度 486.2 km
速度 7.63 km/s
衛星直下点 40.68°N, 117.28°W
打ち上げ日 Dec 8, 2025
運用期間 0.4 years
タイプ internet

技術仕様

分類 Payload
質量 575.00 kg
乾燥質量 530.00 kg
総質量 575.00 kg
長さ 0.30 m
直径 4.10 m
スパン 29.00 m
形状 Box + pan
製造者 SPXS
バスタイプ Starlink V2MO
フェーズステータス In Orbit
所有者/国 SPXS/US

Most Searched